Date String (YYYY-MM-DD hh:mm:ss) UTC,Instrument flags,Ambient pressure (hPa),Sample flow (lpm),Bypass flow (lpm),Sample temperature (°C),Ambient temperature (°C),ASC tube jacket temperature (°C),LED temperature (°C),Box temperature (°C),Sample RH (%),Span deviation,Mass concentration (μg/m³),Mass concentration (μg/m³),Mass concentration (μg/m³)
DateTimeUTC,F1_M11,P_M11,Q1_M11,Q2_M11,T1_M11,T2_M11,T3_M11,T4_M11,T5_M11,U1_M11,ZSPAN_M11,X0_M11,X2_M11,X1_M11
2023-02-27 19:00:00,,0816.4,4.95,0.00,22.3,23.0,00.0,30.9,24.3,10.4,0000.0,0000.73,0000.37,0000.21
2023-02-27 19:01:00,,0816.4,4.99,0.00,22.3,22.5,00.0,30.9,24.2,09.8,0000.0,0000.72,0000.39,0000.21
2023-02-27 19:02:00,,0816.5,4.98,0.00,22.3,22.0,00.0,31.0,24.2,09.9,0000.0,0000.77,0000.38,0000.21
2023-02-27 19:03:00,,0816.5,4.99,0.00,22.3,21.7,00.0,31.0,24.1,10.2,0000.0,0000.97,0000.38,0000.21
2023-02-27 19:04:00,,0816.4,4.99,0.00,22.3,21.4,00.0,31.0,24.0,10.5,0000.0,0001.04,0000.41,0000.21
2023-02-27 19:05:00,,0816.3,5.00,0.00,22.3,21.2,00.0,31.0,24.0,10.4,0000.0,0001.12,0000.42,0000.20
2023-02-27 19:06:00,,0816.3,5.00,0.00,22.3,21.1,00.0,31.0,23.9,10.2,0000.0,0001.29,0000.47,0000.21
2023-02-27 19:07:00,,0816.4,5.00,0.00,22.3,20.9,00.0,31.0,23.9,10.2,0000.0,0001.41,0000.49,0000.21
2023-02-27 19:08:00,,0816.3,5.01,0.00,22.2,20.8,00.0,31.0,23.8,10.3,0000.0,0001.42,0000.48,0000.21
2023-02-27 19:09:00,,0816.3,5.00,0.00,22.2,20.7,00.0,31.0,23.8,10.3,0000.0,0001.46,0000.49,0000.21
2023-02-27 19:10:00,,0816.3,5.00,0.00,22.2,20.6,00.0,31.0,23.8,10.3,0000.0,0001.41,0000.47,0000.21
2023-02-27 19:11:00,,0816.2,5.00,0.00,22.2,20.6,00.0,31.0,23.8,10.1,0000.0,0001.42,0000.48,0000.21
2023-02-27 19:12:00,,0816.2,5.01,0.00,22.1,20.5,00.0,31.0,23.7,10.0,0000.0,0001.38,0000.47,0000.21
2023-02-27 19:13:00,,0816.2,4.98,0.00,22.1,20.5,00.0,31.0,23.7,10.2,0000.0,0001.34,0000.46,0000.21
2023-02-27 19:14:00,,0816.3,4.98,0.00,22.1,20.5,00.0,30.9,23.7,10.2,0000.0,0001.21,0000.47,0000.21
2023-02-27 19:15:00,,0816.3,5.00,0.00,22.1,20.4,00.0,30.9,23.6,10.1,0000.0,0001.22,0000.46,0000.21
2023-02-27 19:16:00,,0816.3,4.99,0.00,22.0,20.4,00.0,30.9,23.7,10.4,0000.0,0001.17,0000.44,0000.21
2023-02-27 19:17:00,,0816.3,5.00,0.00,22.0,20.4,00.0,30.9,23.6,10.0,0000.0,0001.05,0000.41,0000.21
2023-02-27 19:18:00,,0816.2,5.00,0.00,22.0,20.3,00.0,30.9,23.6,10.2,0000.0,0001.01,0000.39,0000.20
2023-02-27 19:19:00,,0816.1,5.00,0.00,22.0,20.3,00.0,30.9,23.6,10.5,0000.0,0001.17,0000.39,0000.20
2023-02-27 19:20:00,,0816.2,5.00,0.00,22.0,21.3,00.0,30.8,23.8,09.9,0000.0,0001.10,0000.37,0000.20
2023-02-27 19:21:00,,0816.2,5.00,0.00,22.2,22.6,00.0,30.8,24.2,10.3,0000.0,0001.22,0000.40,0000.20
2023-02-27 19:22:00,,0816.1,4.93,0.00,22.3,23.6,00.0,30.9,24.5,10.3,0000.0,0001.44,0000.45,0000.20
2023-02-27 19:23:00,,0816.1,5.03,0.00,22.4,23.1,00.0,30.9,24.5,09.7,0000.0,0001.52,0000.47,0000.20
2023-02-27 19:24:00,,0816.1,5.00,0.00,22.4,22.5,00.0,31.0,24.3,09.9,0000.0,0001.57,0000.47,0000.21
2023-02-27 19:25:00,,0816.1,4.98,0.00,22.4,22.1,00.0,31.0,24.2,10.2,0000.0,0001.63,0000.49,0000.22
2023-02-27 19:26:00,,0816.0,4.99,0.00,22.4,21.8,00.0,31.0,24.2,09.9,0000.0,0001.54,0000.47,0000.22
2023-02-27 19:27:00,,0816.0,5.00,0.00,22.4,21.5,00.0,31.1,24.1,10.0,0000.0,0001.66,0000.50,0000.22
2023-02-27 19:28:00,,0816.0,5.00,0.00,22.4,21.3,00.0,31.1,24.1,10.0,0000.0,0001.63,0000.50,0000.22
2023-02-27 19:29:00,,0816.0,5.01,0.00,22.4,21.2,00.0,31.1,24.0,09.6,0000.0,0001.63,0000.51,0000.23
2023-02-27 19:30:00,,0816.0,4.99,0.00,22.4,21.0,00.0,31.1,24.0,09.9,0000.0,0001.47,0000.50,0000.23
2023-02-27 19:31:00,,0816.0,5.01,0.00,22.3,20.9,00.0,31.1,23.9,09.8,0000.0,0001.46,0000.50,0000.24
2023-02-27 19:32:00,,0815.9,5.00,0.00,22.3,20.8,00.0,31.1,23.9,09.6,0000.0,0001.30,0000.46,0000.24
2023-02-27 19:33:00,,0815.8,5.01,0.00,22.3,20.8,00.0,31.1,23.8,09.6,0000.0,0001.08,0000.41,0000.23
2023-02-27 19:34:00,,0815.8,4.99,0.00,22.2,20.7,00.0,31.1,23.8,09.9,0000.0,0001.02,0000.40,0000.24
2023-02-27 19:35:00,,0815.8,5.00,0.00,22.2,20.6,00.0,31.1,23.8,09.8,0000.0,0000.98,0000.39,0000.24
2023-02-27 19:36:00,,0815.8,5.00,0.00,22.2,20.6,00.0,31.0,23.8,09.7,0000.0,0000.90,0000.39,0000.24
2023-02-27 19:37:00,,0815.8,5.01,0.00,22.2,20.5,00.0,31.0,23.7,09.4,0000.0,0000.91,0000.39,0000.24
2023-02-27 19:38:00,,0815.9,4.99,0.00,22.2,20.5,00.0,31.0,23.8,09.4,0000.0,0000.73,0000.36,0000.23
2023-02-27 19:39:00,,0815.8,4.99,0.00,22.1,20.5,00.0,31.0,23.8,09.5,0000.0,0000.76,0000.36,0000.23
2023-02-27 19:40:00,,0815.8,5.01,0.00,22.1,20.4,00.0,31.0,23.7,09.6,0000.0,0000.64,0000.33,0000.23
2023-02-27 19:41:00,,0815.8,5.02,0.00,22.1,20.4,00.0,31.0,23.7,09.8,0000.0,0000.63,0000.34,0000.23
2023-02-27 19:42:00,,0815.6,5.00,0.00,22.1,20.4,00.0,30.9,23.6,09.7,0000.0,0000.69,0000.36,0000.22
2023-02-27 19:43:00,,0815.8,4.99,0.00,22.0,20.4,00.0,30.9,23.6,09.6,0000.0,0000.76,0000.38,0000.22
2023-02-27 19:44:00,,0815.7,5.00,0.00,22.0,20.3,00.0,30.9,23.6,09.8,0000.0,0000.78,0000.39,0000.23
2023-02-27 19:45:00,,0815.7,4.99,0.00,22.1,21.1,00.0,30.9,23.8,09.6,0000.0,0000.86,0000.41,0000.22
2023-02-27 19:46:00,,0815.6,5.00,0.00,22.2,22.4,00.0,30.9,24.2,09.5,0000.0,0000.92,0000.43,0000.22
2023-02-27 19:47:00,,0815.7,5.02,0.00,22.3,23.5,00.0,30.9,24.5,09.5,0000.0,0000.93,0000.44,0000.22
2023-02-27 19:48:00,,0815.5,5.02,0.00,22.4,23.1,00.0,31.0,24.5,09.4,0000.0,0001.18,0000.47,0000.22
2023-02-27 19:49:00,,0815.8,4.99,0.00,22.5,22.6,00.0,31.0,24.4,09.6,0000.0,0001.23,0000.47,0000.23
2023-02-27 19:50:00,,0815.6,5.01,0.00,22.5,22.2,00.0,31.1,24.3,09.9,0000.0,0001.27,0000.48,0000.23
2023-02-27 19:51:00,,0815.7,5.00,0.00,22.5,21.9,00.0,31.1,24.2,09.6,0000.0,0001.36,0000.50,0000.22
2023-02-27 19:52:00,,0815.8,5.00,0.00,22.5,21.6,00.0,31.1,24.2,10.0,0000.0,0001.39,0000.51,0000.22
2023-02-27 19:53:00,,0815.8,5.00,0.00,22.5,21.3,00.0,31.1,24.1,09.9,0000.0,0002.18,0000.51,0000.22
2023-02-27 19:54:00,,0815.6,5.00,0.00,22.4,21.2,00.0,31.1,24.1,09.8,0000.0,0002.50,0000.49,0000.23
2023-02-27 19:55:00,,0815.7,4.99,0.00,22.4,21.1,00.0,31.1,24.0,09.6,0000.0,0002.48,0000.49,0000.22
2023-02-27 19:56:00,,0815.7,4.99,0.00,22.4,20.9,00.0,31.1,24.0,09.3,0000.0,0002.37,0000.46,0000.22
2023-02-27 19:57:00,,0815.7,5.00,0.00,22.4,20.9,00.0,31.1,24.0,09.4,0000.0,0002.29,0000.44,0000.21
2023-02-27 19:58:00,,0815.9,5.01,0.00,22.3,20.8,00.0,31.1,23.9,09.6,0000.0,0002.24,0000.41,0000.21
2023-02-27 19:59:00,,0815.8,5.00,0.00,22.3,20.7,00.0,31.1,23.9,09.4,0000.0,0002.16,0000.40,0000.21
